www.pogodaiklimat.ru

Погода и климат >> Архив погоды >> Россия >> Ямало-Ненецкий АО >> Белоярск


ПОГОДА в Белоярске

  • Прогноз погоды в Белоярске
  • Монитор погоды в Белоярске

АРХИВ ПОГОДЫ в Белоярске

Время (UTC), дата Ветер
(напр.,м/с)
 
Видим.   Явления Облачность Т
(С)
Тd
(С)
f
(%)
Тe
(С)
Тes
(С)
Комфортность P
(гПа)
Po
(гПа)
Тmin
(С)
Tmax
(С)
R
(мм)
R24
(мм)
S
(см)
18 9.06 ЮВ 7
{13}
н/о н/о +3.0 +1.6 91 -3 -3 1006.2 1001.9
21 9.06 СВ 10
{15}
н/о н/о +1.5 +0.8 95 -6 -6 1008.7 1004.3
00 10.06 СВ 7
{14}
н/о н/о +1.3 -2.1 78 -5 -5 1011.4 1007.0
03 10.06 ЮВ 7
{14}
н/о н/о +2.1 -3.8 65 -4 -4 1014.0 1009.6 +0.4
06 10.06 В 7
{11}
н/о н/о +4.5 -4.7 51 -1 -1 1014.9 1010.5
09 10.06 В 6
{10}
н/о н/о +4.9 -3.5 55 0 0 1015.5 1011.1
12 10.06 В 4 н/о н/о +5.2 -6.5 43 +2 +2 1016.1 1011.8
15 10.06 Ю 3 н/о н/о +4.4 -5.1 50 +1 +1 1015.4 1011.1
18 10.06 ЮВ 3 н/о н/о +3.6 -2.8 63 0 0 1013.9 1009.5
21 10.06 Ю 3 н/о н/о +3.5 -3.0 62 0 0 1012.8 1008.4
00 11.06 ЮВ 3 н/о н/о +1.8 +1.2 96 -3 -3 1011.2 1006.8
03 11.06 ЮВ 3 н/о н/о +2.8 +1.4 90 -1 -1 1009.4 1005.0 +1.7 1
06 11.06 ЮВ 3 н/о н/о +4.4 +4.0 97 +1 +1 1008.6 1004.3
09 11.06 ЮВ 3 н/о н/о +5.4 +3.4 87 +2 +2 1007.9 1003.6
12 11.06 ЮВ 2 н/о н/о +4.9 +3.0 87 +2 +2 1007.6 1003.3
15 11.06 ЮВ 2 н/о н/о +5.4 +4.2 92 +3 +3 1006.2 1001.9 +5.8 2
18 11.06 ЮВ 2 н/о н/о +4.3 +3.0 91 +1 +1 1005.3 1001.0
21 11.06 В 3 н/о н/о +2.8 +2.0 94 -1 -1 1004.5 1000.2
00 12.06 СВ 3 н/о н/о +1.8 +1.0 94 -3 -3 1004.3 999.9
03 12.06 СВ 5 н/о н/о +3.6 +3.1 97 -2 -2 1003.5 999.2 +1.7 1
06 12.06 СВ 4 н/о н/о +4.8 +2.8 87 +1 +1 1003.0 998.7
09 12.06 В 4 н/о н/о +6.7 0.0 62 +3 +3 1002.7 998.5
12 12.06 В 3 н/о н/о +5.8 -2.1 57 +3 +3 1002.8 998.5
15 12.06 СЗ 5 н/о н/о +5.6 -4.6 48 +2 +2 1002.2 997.9 +6.9 1
18 12.06 З 5 н/о н/о +2.1 -1.9 75 -3 -3 1001.4 997.0
21 12.06 ЮВ 1 н/о н/о +1.2 -0.1 91 -1 -1 999.6 995.3
00 13.06 В 7 н/о н/о +0.8 +0.2 96 -6 -6 998.9 994.5
03 13.06 СВ 6 н/о н/о +1.0 -3.7 71 -5 -5 998.4 994.1 0.0 2
06 13.06 Ю 7
{11}
н/о н/о +2.3 -12.3 33 -3 -3 998.0 993.7
12 13.06 Ю 7
{13}
н/о н/о +2.8 -7.5 47 -3 -3 999.1 994.8
18 13.06 З 5
{13}
н/о н/о +0.2 -4.2 72 -6 -6 997.8 993.4
00 14.06 Ю 8
{16}
н/о н/о -0.1 -0.6 96 -8 -8 994.5 990.2
03 14.06 ЮВ 11
{18}
н/о н/о -0.1 -0.3 99 -9 -9 994.2 989.9 -0.7
06 14.06 ЮВ 14-19
{21}
н/о н/о +0.4 +0.1 98 -9 -9 995.8 991.5
09 14.06 ЮВ 11
{21}
н/о н/о +3.3 -3.1 63 -4 -4 998.5 994.2
12 14.06 З 12
{16}
н/о н/о +4.8 -3.5 55 -2 -2 1000.7 996.4
15 14.06 З 7
{16}
н/о н/о +4.2 -2.7 61 -1 -1 1001.3 997.0 +5.8 0.8
18 14.06 З 3
{10}
н/о н/о +1.9 -2.5 73 -2 -2 1001.3 997.0
21 14.06 ЮЗ 2 н/о н/о -0.4 -2.9 83 -4 -4 1001.3 996.9
00 15.06 Ю 3 н/о н/о +1.4 +0.9 96 -3 -3 1000.8 996.5
03 15.06 З 5 н/о н/о +4.2 -0.0 74 -1 -1 1000.6 996.3 -0.9
06 15.06 Ю 6
{11}
н/о н/о +7.2 +0.8 64 +3 +3 1000.5 996.2
09 15.06 Ю 5
{11}
н/о н/о +6.7 +1.5 69 +3 +3 1000.7 996.4
12 15.06 ЮЗ 4 н/о н/о +8.3 -14.2 19 +6 +6 1000.7 996.5
15 15.06 Ю 3 н/о н/о +6.9 +1.5 68 +4 +4 1001.1 996.9 +8.9

 

Местоположение метеостанции Белоярск (Ямало-Ненецкий АО, Россия): широта 66.87 долгота 68.13 высота над уровнем моря 35 м.

В архиве по умолчанию представлена погода в Белоярске за последнюю неделю. Архивные данные за месяц целиком и за предыдущие месяцы, начиная с января 2011 года, Вы можете получить, выбрав интересующий диапазон дат из раскрывающегося списка и нажав кнопку "Ввод!".


*Определитесь, кто Вы:
робот инопланетянин человек

Внимание! Время в таблицах - всемирное. Для получения местного времени необходимо прибавить поправку, которая равна 5 ч.

Смотрите также архив погоды в соседних городах и на ближайших метеорологических станциях:

Погода в Салехарде (Ямало-Ненецкий АО, Россия) (75 км)
Погода в Полуе (Ямало-Ненецкий АО, Россия) (97 км)
Погода в Харпе (Ямало-Ненецкий АО, Россия) (103 км)
Погода в Питляре (Ямало-Ненецкий АО, Россия) (152 км)
Погода в Елецкой (Коми, Россия) (178 км)
Погода в Воркуте (Коми, Россия) (192 км)
Погода в Ныде (Ямало-Ненецкий АО, Россия) (212 км)
Погода в Новом Порте (Ямало-Ненецкий АО, Россия) (223 км)
Погода в Мужах (Ямало-Ненецкий АО, Россия) (226 км)
Погода в Надыме (Ямало-Ненецкий АО, Россия) (257 км)

Пояснения к столбцам:

Ветер - указаны скорость ветра в м/с - средняя за 10 мин, порывы в срок и между сроками (в фигурных скобках) и направление, откуда дует ветер: С - северный, СВ - северо-восточный, В - восточный, ЮВ - юго-восточный, Ю - южный, ЮЗ - юго-западный, З - западный, СЗ - северо-западный.
Видимость - горизонтальная дальность видимости в метрах или километрах. При видимости от 1 до 10 км при отсутствии осадков обычно наблюдается дымка, при ухудшении видимости до 1 км и менее - туман. В сухую погоду видимость может ухудшаться дымом, пылью или мглою.
Явления - указаны атмосферные явления, наблюдавшиеся в срок или в последний час перед сроком; фигурными скобками обозначены явления, наблюдавшиеся между сроками (за 1-3 часа до срока); квадратными скобками обозначены град или гололедные отложения с указанием их диаметра в мм.
Облачность - указаны через наклонную черту общая и нижняя облачность в баллах и высота нижней границы облаков в метрах; квадратными скобками обозначены формы облаков: Ci - перистые, Cs - перисто-слоистые, Cc - перисто-кучевые, Ac - высококучевые, As - высокослоистые, Sc - слоисто-кучевые, Ns - слоисто-дождевые, Cu - кучевые, Cb - кучево-дождевые. Подробнее классификацию облаков см. в Атласе облаков (PDF).
T - Температура воздуха - температура, измеренная на высоте 2 м над землей.
Td - Температура точки росы - температура, при понижении до которой содержащийся в воздухе водяной пар достигнет насыщения.
f - Относительная влажность воздуха - влажноcть воздуха, измеренная на высоте 2 м над землей.
Te - Эффективная температура - температура, которую ощущает одетый по сезону человек в тени. Характеристика душности погоды. При расчете учитывается влияние влажности воздуха и скорости ветра на теплоощущения человека.
Tes - Эффективная температура на солнце - температура, которую ощущает человек, с поправкой на солнечный нагрев. Характеристика знойности погоды. Зависит от высоты солнца над горизонтом, облачности и скорости ветра. Ночью, в пасмурную погоду, а также при ветре 12 м/с и более поправка равна нулю.
P - Атмосферное давление - приведенное к уровню моря атмосферное давление.
Po - Атмосферное давление - измеренное на уровне метеостанции атмосферное давление.
Tmin - Минимальная температура - минимум температуры воздуха на высоте 2 м над землей.
Tmax - Максимальная температура - максимум температуры воздуха на высоте 2 м над землей.
R - Количество осадков - Количество выпавших осадков за период времени, мм. При наведении курсора мыши на число - период времени, за который выпало указанное количество осадков.
R24 - Количество осадков - Количество выпавших осадков за 24 часа, мм.
S - Снежный покров - Высота снежного покрова, см. При наведении курсора мыши на число - состояние снежного покрова и степень покрытия местности в баллах.